[[{"header":{"parameterUnit":"m.s-1","parameterCategory":2,"la1":30.2991,"la2":30.254,"lo1":-89.0895,"lo2":-89.0444,"dy":0.0017,"dx":0.0017,"nx":28,"ny":28,"refTime":"2024-08-18T03:00:00:Z","depth":"0","parameterNumber":2,"parameterNumberName":"U-component_of_CURRENTS"},"data":[0,0,0,0,0,0,0,0,0,0,0,0,0,0,0,0,0,0,0,0,0,0,0,0,0,0,0,0,0,0,0,0,0,0,0,0,0,0,0,0,0,0,0,0,0,0,0,0,0,0,0,0,0,0,0,0,0,0,0.2164,0.2163,0,0.2133,0.2133,0.2132,0.2096,0.2096,0.2096,0.2095,0.2041,0.204,0.2039,0,0,0,0,0,0,0,0,0,0,0,0,0,0.22,0.2199,0.2164,0.2163,0.2163,0.2133,0.2133,0.2132,0.2097,0.2096,0.2095,0.2095,0.2041,0.204,0.2039,0,0,0,0,0,0,0,0,0,0,0,0,0,0.2177,0.2199,0.2164,0.2143,0.214,0.2133,0.2133,0.2132,0.2097,0.2096,0.2095,0.2095,0.2042,0.204,0.2038,0.2042,0,0,0.2034,0.2033,0,0,0,0,0,0,0,0,0.2179,0.2176,0.2146,0.2144,0.2142,0.2119,0.2126,0.2101,0.2097,0.2112,0.2095,0.2094,0.2066,0.2062,0.2057,0.204,0.2037,0.2034,0.2033,0.2032,0.2032,0,0,0,0,0,0,0,0.218,0.2177,0.215,0.2146,0.2143,0.2138,0.2134,0.2121,0.2092,0.2111,0.2108,0.2107,0.2064,0.2058,0.2055,0.2037,0.2034,0.2032,0.2031,0.2031,0.2056,0.2057,0,0,0,0,0,0,0.2187,0.2179,0.2151,0.215,0.216,0.2138,0.2133,0.2126,0.2092,0.2087,0.2108,0.2105,0.2061,0.2057,0.2053,0.2073,0.2032,0.2031,0.203,0.2054,0.2056,0.2058,0,0,0,0,0,0,0.2187,0.2184,0.2153,0.2165,0.216,0.2138,0.213,0.2126,0.2119,0.2091,0.2084,0.2106,0.2061,0.2055,0.2056,0.207,0.203,0.2028,0.2052,0.2055,0.2057,0.2101,0,0,0,0,0,0,0.2188,0.2185,0.2182,0.2165,0.216,0.215,0.2131,0.2126,0.212,0.2117,0.2087,0.2081,0.206,0.2058,0.2054,0.2067,0.2027,0.205,0.2053,0.2056,0.2097,0.2104,0.211,0,0,0,0,0,0.219,0.2185,0.2182,0.2179,0.2157,0.2151,0.2148,0.2129,0.2121,0.212,0.2111,0.2082,0.2075,0.2058,0.2053,0.2065,0.2049,0.2053,0.2056,0.2094,0.2103,0.211,0,0,0,0,0,0,0.2189,0.218,0.2177,0.2167,0.2163,0.2145,0.2142,0.2134,0.2126,0.2124,0.2097,0.2092,0.2103,0.2083,0.2066,0.2086,0.2059,0.2062,0.209,0.2098,0.2105,0.2093,0.2026,0,0,0,0,0,0.2192,0.2189,0.2182,0.2173,0.2175,0.2162,0.2158,0.2148,0.2139,0.2134,0.2115,0.2107,0.2115,0.2104,0.2104,0.2105,0.2096,0.2114,0.212,0.2126,0.2116,0.214,0.2147,0.207,0.207,0.207,0,0,0.2185,0.2183,0.2177,0.2174,0.2169,0.2164,0.2157,0.2154,0.2149,0.2131,0.2121,0.2131,0.2125,0.2135,0.2137,0.2115,0.2145,0.213,0.2135,0.2121,0.2145,0.2152,0.2158,0.2072,0.2072,0.2071,0,0,0.2167,0.2175,0.2164,0.2168,0.2169,0.2168,0.217,0.2161,0.216,0.2162,0.2161,0.2182,0.2167,0.2174,0.2176,0.2219,0.2188,0.222,0.2227,0.2251,0.2257,0.2263,0.2262,0.2267,0.2211,0.2211,0.2211,0,0.2157,0.2146,0.216,0.2155,0.2156,0.2171,0.216,0.2168,0.2159,0.2164,0.2163,0.2186,0.2188,0.221,0.2231,0.2232,0.2229,0.2194,0.2258,0.2263,0.2268,0.2266,0.227,0.2214,0.2213,0.2213,0.2213,0,0.2129,0.2127,0.2126,0.2126,0.2132,0.2132,0.2147,0.2157,0.2168,0.2172,0.2203,0.2223,0.2231,0.225,0.225,0.2288,0.2271,0.2273,0.2233,0.2278,0.2273,0.2277,0.2217,0.2216,0.2216,0.2215,0,0,0.2091,0.2101,0.2102,0.21,0.212,0.2119,0.2135,0.215,0.2164,0.2182,0.2201,0.2241,0.2259,0.2264,0.2281,0.2305,0.2348,0.2299,0.2299,0.2288,0.2383,0.2198,0.2184,0.236,0.2361,0.2362,0.2366,0,0.2064,0.2049,0.2065,0.2057,0.2053,0.2087,0.2099,0.2121,0.2153,0.2181,0.2225,0.2255,0.2262,0.2284,0.231,0.235,0.2361,0.2345,0.2349,0.2348,0.217,0.2183,0.2102,0.2084,0.237,0.2371,0.2371,0,0.2026,0.2029,0.2011,0.2028,0.203,0.2033,0.207,0.2086,0.2143,0.217,0.2212,0.2248,0.23,0.2306,0.2362,0.2351,0.2362,0.2384,0.2385,0.2193,0.2169,0.2087,0.208,0.2061,0.2377,0.2376,0.2376,0,0.1986,0.199,0.1977,0.1982,0.2004,0.201,0.203,0.2078,0.2104,0.2172,0.2203,0.2258,0.2298,0.2333,0.2356,0.2375,0.2399,0.2433,0.227,0.2257,0.2175,0.2151,0.2136,0.2457,0.2457,0.2457,0.2457,0,0.1949,0.1942,0.1959,0.1954,0.1956,0.1982,0.2002,0.2036,0.2094,0.2126,0.2194,0.2232,0.2309,0.2329,0.2354,0.2291,0.239,0.2255,0.224,0.2185,0.2163,0.2128,0.2107,0.2457,0.2457,0.2457,0.2457,0,0.1905,0.1912,0.1903,0.1925,0.1933,0.1937,0.1982,0.2004,0.2062,0.2112,0.2137,0.2222,0.2228,0.2249,0.23,0.2259,0.216,0.2191,0.2093,0.2062,0.186,0.1843,0.1663,0.1632,0.2027,0.2022,0.2018,0,0.1877,0.1866,0.188,0.1881,0.1891,0.1908,0.1924,0.1981,0.2011,0.2098,0.2119,0.2144,0.2131,0.209,0.2035,0.1978,0.1976,0.1853,0.186,0.1805,0.1781,0.172,0.1709,0.1798,0.1792,0.1788,0.1784,0,0.1842,0.1847,0.1848,0.1847,0.1855,0.1868,0.1896,0.1914,0.1983,0.2005,0.2025,0.202,0.1958,0.1856,0.1743,0.171,0.1737,0.1752,0.1762,0.1619,0.1493,0.1472,0.1831,0.1745,0.1749,0.1751,0.1754,0.1755,0.1824,0.1817,0.182,0.1805,0.1816,0.182,0.1798,0.1826,0.1836,0.1825,0.189,0.181,0.1747,0.1569,0.1518,0.1371,0.1405,0.1353,0.1348,0.1301,0.1213,0.1427,0.1265,0.1266,0.1267,0.1268,0.1269,0,0.1792,0.1787,0.178,0.1761,0.1735,0.1761,0.1766,0.1718,0.1671,0.1668,0.1622,0.1501,0.1374,0.1309,0.116,0.1055,0.1048,0.1001,0.0995,0.1019,0.129,0.1222,0.0963,0.0963,0.0963,0.0963,0.0963,0.0963,0.1781,0.1755,0.1736,0.1674,0.1656,0.1597,0.157,0.1503,0.147,0.1333,0.1234,0.1207,0.1168,0.1021,0.0893,0.0853,0.084,0.068,0.0737,0.1034,0.1071,0.1107,0.1043,0.075,0.075,0.0475,0.0473,0.0471]},{"header":{"parameterUnit":"m.s-1","parameterCategory":2,"la1":30.2991,"la2":30.254,"lo1":-89.0895,"lo2":-89.0444,"dy":0.0017,"dx":0.0017,"nx":28,"ny":28,"refTime":"2024-08-18T03:00:00:Z","depth":"0","parameterNumber":3,"parameterNumberName":"V-component_of_CURRENTS"},"data":[0,0,0,0,0,0,0,0,0,0,0,0,0,0,0,0,0,0,0,0,0,0,0,0,0,0,0,0,0,0,0,0,0,0,0,0,0,0,0,0,0,0,0,0,0,0,0,0,0,0,0,0,0,0,0,0,0,0,0.0277,0.0278,0,0.0313,0.0313,0.0313,0.0316,0.0316,0.0316,0.0315,0.0322,0.0323,0.0323,0,0,0,0,0,0,0,0,0,0,0,0,0,0.022,0.0221,0.0277,0.0278,0.0278,0.0313,0.0313,0.0313,0.0316,0.0316,0.0316,0.0315,0.0322,0.0323,0.0323,0,0,0,0,0,0,0,0,0,0,0,0,0,0.0249,0.0221,0.0277,0.0284,0.0285,0.0312,0.0313,0.0314,0.0316,0.0316,0.0315,0.0315,0.0322,0.0323,0.0324,0.0339,0,0,0.0326,0.0326,0,0,0,0,0,0,0,0,0.0247,0.0251,0.0283,0.0284,0.0285,0.031,0.0295,0.0321,0.0317,0.0304,0.0315,0.0315,0.0316,0.0317,0.0325,0.0339,0.034,0.0326,0.0326,0.0327,0.0327,0,0,0,0,0,0,0,0.0245,0.0249,0.0291,0.0283,0.0285,0.0288,0.0291,0.03,0.0312,0.0305,0.0306,0.031,0.0316,0.0324,0.0325,0.034,0.0326,0.0327,0.0327,0.0327,0.0364,0.0364,0,0,0,0,0,0,0.0242,0.0248,0.029,0.0292,0.0265,0.0289,0.0293,0.0302,0.0313,0.0314,0.0311,0.031,0.0323,0.0324,0.0325,0.0353,0.0327,0.0328,0.0328,0.0363,0.0364,0.0364,0,0,0,0,0,0,0.0241,0.0246,0.0289,0.0271,0.0276,0.0291,0.0301,0.0303,0.0311,0.0317,0.0318,0.0316,0.0323,0.0324,0.0336,0.0352,0.0328,0.0329,0.0363,0.0363,0.0364,0.0401,0,0,0,0,0,0,0.0239,0.0245,0.0252,0.0271,0.0277,0.0309,0.0302,0.0304,0.0315,0.0314,0.0322,0.0322,0.0323,0.0335,0.0337,0.0353,0.0329,0.0362,0.0363,0.0364,0.0399,0.0403,0.0406,0,0,0,0,0,0.0237,0.025,0.0252,0.0257,0.0286,0.0309,0.0313,0.0321,0.0315,0.0325,0.0328,0.0322,0.0342,0.0337,0.0339,0.0355,0.0362,0.0363,0.0364,0.0398,0.0402,0.0406,0,0,0,0,0,0,0.0228,0.0252,0.0255,0.0274,0.0291,0.031,0.0321,0.0323,0.0334,0.0332,0.0331,0.0332,0.0349,0.0345,0.0339,0.0367,0.035,0.0352,0.0375,0.038,0.0383,0.0398,0.033,0,0,0,0,0,0.023,0.0246,0.0266,0.0282,0.0291,0.0306,0.0316,0.0322,0.0333,0.0338,0.0341,0.0345,0.0357,0.0361,0.0369,0.0386,0.0386,0.0396,0.04,0.0403,0.0416,0.043,0.0436,0.0368,0.0368,0.0368,0,0,0.0229,0.0246,0.0253,0.0281,0.0295,0.0318,0.0311,0.033,0.0348,0.0337,0.0358,0.0359,0.0363,0.0384,0.039,0.0382,0.0419,0.0404,0.0407,0.0419,0.0432,0.0439,0.0445,0.0369,0.0369,0.0368,0,0,0.0241,0.0253,0.0272,0.0289,0.0314,0.0327,0.0332,0.0352,0.036,0.0381,0.0378,0.0392,0.0402,0.0416,0.0422,0.045,0.0437,0.0443,0.0476,0.0489,0.0495,0.0501,0.0499,0.0504,0.0445,0.0445,0.0445,0,0.0239,0.0269,0.028,0.0306,0.0324,0.0331,0.0358,0.0371,0.039,0.0405,0.0391,0.0424,0.0423,0.0461,0.0467,0.0461,0.0456,0.046,0.0495,0.05,0.0505,0.0502,0.0507,0.0447,0.0446,0.0446,0.0446,0,0.0268,0.0293,0.0307,0.0342,0.0362,0.0386,0.0406,0.0423,0.0428,0.0443,0.0475,0.0479,0.0501,0.0499,0.0492,0.0528,0.0509,0.0498,0.0486,0.0514,0.0509,0.0514,0.0449,0.0449,0.0448,0.0448,0,0,0.0262,0.0317,0.0322,0.0349,0.0385,0.0407,0.0437,0.0474,0.0502,0.0513,0.0553,0.0567,0.0569,0.0576,0.057,0.058,0.0602,0.0552,0.0552,0.0555,0.062,0.0595,0.0597,0.0593,0.0594,0.0595,0.0599,0,0.0284,0.0339,0.036,0.0411,0.0443,0.0461,0.0494,0.0525,0.0545,0.0583,0.0595,0.0628,0.0598,0.0613,0.0619,0.0614,0.0617,0.0602,0.0589,0.0589,0.0567,0.0603,0.0626,0.0631,0.0603,0.0604,0.0604,0,0.0309,0.0345,0.04,0.046,0.0475,0.0503,0.056,0.059,0.0637,0.0654,0.0685,0.0693,0.0724,0.0688,0.0696,0.0685,0.0657,0.0642,0.0642,0.0613,0.0574,0.06,0.064,0.067,0.0611,0.061,0.061,0,0.0312,0.0374,0.0422,0.0441,0.0505,0.0532,0.0564,0.0613,0.0654,0.0704,0.0742,0.0765,0.0794,0.0769,0.0736,0.0719,0.0733,0.0706,0.0656,0.0653,0.0669,0.0666,0.0744,0.0708,0.0707,0.0707,0.0707,0,0.0336,0.0373,0.0427,0.0455,0.0514,0.0548,0.0613,0.0645,0.0708,0.0776,0.0781,0.0838,0.0817,0.0821,0.0767,0.0731,0.0757,0.0676,0.0662,0.068,0.0678,0.07,0.0699,0.0708,0.0708,0.0708,0.0708,0,0.0343,0.0377,0.0434,0.0498,0.0521,0.0563,0.0646,0.0697,0.0745,0.0837,0.086,0.0909,0.0914,0.0871,0.0841,0.0785,0.0758,0.0713,0.0728,0.0715,0.0689,0.0687,0.072,0.0773,0.0669,0.0668,0.0668,0,0.0359,0.0388,0.0459,0.0496,0.0529,0.0593,0.0647,0.0709,0.0772,0.0885,0.0938,0.0973,0.1004,0.0942,0.0853,0.0762,0.0761,0.0716,0.069,0.0708,0.0697,0.0688,0.0731,0.0722,0.0722,0.0722,0.0722,0,0.0385,0.0405,0.045,0.0521,0.0579,0.065,0.073,0.0788,0.0882,0.0961,0.1062,0.1093,0.1046,0.0988,0.0859,0.0788,0.0761,0.0713,0.0746,0.0763,0.0748,0.0785,0.0684,0.0723,0.0723,0.0722,0.0722,0.0722,0.0401,0.0433,0.0487,0.0554,0.0619,0.0705,0.0772,0.0865,0.0972,0.1097,0.1128,0.1184,0.112,0.0953,0.0868,0.0767,0.0761,0.0739,0.0739,0.0731,0.0782,0.0671,0.068,0.068,0.068,0.068,0.0679,0,0.0423,0.046,0.052,0.0602,0.0669,0.0705,0.0829,0.0907,0.1036,0.1137,0.1211,0.1238,0.1129,0.1022,0.0876,0.0821,0.082,0.0799,0.0822,0.087,0.0791,0.0794,0.0813,0.0813,0.0813,0.0813,0.0813,0.0813,0.0439,0.0489,0.0517,0.0622,0.0684,0.0784,0.0857,0.0983,0.1082,0.1211,0.1273,0.132,0.1317,0.1029,0.0917,0.0886,0.0934,0.0874,0.0917,0.0878,0.0874,0.087,0.0876,0.0912,0.0912,0.1032,0.1033,0.1034]}],[{"header":{"parameterUnit":"m.s-1","parameterCategory":2,"la1":30.2991,"la2":30.254,"lo1":-89.0895,"lo2":-89.0444,"dy":0.0017,"dx":0.0017,"nx":28,"ny":28,"refTime":"2024-08-18T03:00:00:Z","depth":"2","parameterNumber":2,"parameterNumberName":"U-component_of_CURRENTS"},"data":[0,0,0,0,0,0,0,0,0,0,0,0,0,0,0,0,0,0,0,0,0,0,0,0,0,0,0,0,0,0,0,0,0,0,0,0,0,0,0,0,0,0,0,0,0,0,0,0,0,0,0,0,0,0,0,0,0,0,0.1601,0.1601,0,0.1599,0.1599,0.1599,0.1608,0.1608,0.1608,0.1609,0.1627,0.1628,0.1628,0,0,0,0,0,0,0,0,0,0,0,0,0,0.1626,0.1625,0.1602,0.1601,0.1601,0.1599,0.1599,0.1599,0.1608,0.1608,0.1608,0.1609,0.1627,0.1628,0.1628,0,0,0,0,0,0,0,0,0,0,0,0,0,0.1619,0.1625,0.1602,0.1604,0.1605,0.1599,0.1599,0.1599,0.1608,0.1608,0.1608,0.1609,0.1627,0.1628,0.1628,0.1627,0,0,0.163,0.163,0,0,0,0,0,0,0,0,0.162,0.1619,0.1604,0.1604,0.1604,0.1603,0.1614,0.1609,0.1608,0.1608,0.1609,0.1609,0.162,0.1621,0.1622,0.1628,0.1628,0.163,0.163,0.163,0.163,0,0,0,0,0,0,0,0.162,0.1619,0.1602,0.1604,0.1604,0.1609,0.1609,0.1613,0.1614,0.1608,0.1608,0.1606,0.162,0.1621,0.1622,0.1629,0.163,0.163,0.163,0.1631,0.1702,0.1703,0,0,0,0,0,0,0.1617,0.1619,0.1602,0.1602,0.1611,0.1609,0.1608,0.1604,0.1614,0.1615,0.1606,0.1606,0.162,0.1622,0.1623,0.1668,0.163,0.1631,0.1631,0.17,0.1702,0.1704,0,0,0,0,0,0,0.1617,0.1615,0.1602,0.1609,0.1608,0.1608,0.1603,0.1604,0.1616,0.1611,0.1613,0.1618,0.162,0.1622,0.1632,0.1667,0.1631,0.1631,0.1698,0.1701,0.1703,0.1728,0,0,0,0,0,0,0.1618,0.1615,0.1617,0.1609,0.1607,0.1612,0.1603,0.1604,0.1613,0.1614,0.1623,0.1624,0.1621,0.1632,0.1633,0.1667,0.1632,0.1696,0.1699,0.1702,0.1726,0.1731,0.1736,0,0,0,0,0,0.1619,0.1617,0.1617,0.1615,0.1607,0.1613,0.1613,0.1615,0.1613,0.1625,0.1624,0.1624,0.1652,0.1632,0.1634,0.1669,0.1695,0.1698,0.1702,0.1723,0.173,0.1736,0,0,0,0,0,0,0.1618,0.1617,0.1617,0.1612,0.1619,0.1614,0.1624,0.1622,0.163,0.1633,0.1628,0.1629,0.1662,0.1658,0.1637,0.1702,0.1681,0.1685,0.1697,0.1704,0.1709,0.1697,0.1632,0,0,0,0,0,0.162,0.1622,0.1623,0.1619,0.163,0.163,0.1634,0.1635,0.1636,0.1641,0.1647,0.1659,0.1676,0.1681,0.1699,0.1717,0.1716,0.1748,0.1753,0.1757,0.1751,0.1781,0.1788,0.1715,0.1715,0.1715,0,0,0.1619,0.1615,0.1617,0.162,0.1629,0.1639,0.1634,0.1647,0.1651,0.1641,0.1661,0.168,0.1687,0.1717,0.1732,0.1716,0.1779,0.1762,0.1765,0.1756,0.1785,0.1792,0.1798,0.1718,0.1717,0.1717,0,0,0.1613,0.162,0.1625,0.1634,0.1646,0.1652,0.1659,0.167,0.168,0.1691,0.17,0.1729,0.1745,0.1763,0.1769,0.1813,0.1812,0.1835,0.1842,0.1872,0.1877,0.1882,0.1888,0.1894,0.183,0.183,0.183,0,0.1613,0.161,0.1628,0.1634,0.1639,0.166,0.1666,0.168,0.1691,0.1702,0.1704,0.1756,0.1766,0.1801,0.1818,0.1825,0.1832,0.1812,0.1877,0.1882,0.1886,0.1891,0.1897,0.1832,0.1831,0.1831,0.1831,0,0.1608,0.1612,0.162,0.1635,0.1648,0.1659,0.168,0.1704,0.1719,0.1729,0.1778,0.1798,0.1827,0.1849,0.1838,0.189,0.1881,0.1885,0.1854,0.1895,0.1898,0.1903,0.1834,0.1833,0.1833,0.1832,0,0,0.1594,0.1613,0.1616,0.1622,0.1648,0.1657,0.1683,0.171,0.1732,0.1766,0.1795,0.1837,0.1864,0.1874,0.1893,0.1912,0.195,0.1908,0.1908,0.1902,0.2002,0.184,0.183,0.1966,0.1967,0.1968,0.1989,0,0.1587,0.1591,0.1603,0.1616,0.1627,0.1656,0.1677,0.1707,0.174,0.1782,0.1823,0.1867,0.187,0.1899,0.1921,0.1953,0.1965,0.1943,0.1973,0.1973,0.1816,0.1831,0.1702,0.1696,0.1994,0.1995,0.1995,0,0.158,0.1581,0.159,0.1608,0.1618,0.1633,0.1679,0.17,0.1763,0.1792,0.1847,0.1886,0.1939,0.1935,0.1994,0.1981,0.1988,0.2,0.2002,0.1841,0.182,0.1706,0.1694,0.2004,0.2003,0.2003,0.2002,0,0.1559,0.1573,0.1578,0.1583,0.1612,0.1629,0.1652,0.1708,0.1736,0.1814,0.1848,0.1916,0.1957,0.1992,0.2004,0.2015,0.2044,0.2068,0.1927,0.1916,0.1802,0.1777,0.2095,0.2095,0.2095,0.2095,0.2095,0,0.1538,0.1538,0.1573,0.1572,0.159,0.1619,0.1654,0.169,0.1754,0.1788,0.186,0.1898,0.1973,0.1996,0.2012,0.1961,0.2053,0.1916,0.1906,0.1805,0.1782,0.2048,0.2042,0.2096,0.2096,0.2095,0.2095,0,0.1506,0.1523,0.1534,0.1568,0.158,0.1599,0.1647,0.1674,0.1739,0.1789,0.1818,0.1898,0.1909,0.1937,0.1981,0.1946,0.1933,0.1888,0.174,0.1709,0.1791,0.1787,0.1759,0.1753,0.1748,0.1744,0.1741,0,0.1484,0.1497,0.1535,0.1543,0.1557,0.1588,0.1608,0.1666,0.1692,0.1776,0.1794,0.1828,0.1816,0.1793,0.1744,0.1704,0.1793,0.1547,0.1529,0.1761,0.1756,0.1759,0.1761,0.1412,0.1406,0.1401,0.1398,0,0.1455,0.1485,0.149,0.152,0.154,0.1552,0.1583,0.1599,0.1662,0.1683,0.1698,0.1696,0.1655,0.1541,0.1459,0.1425,0.1541,0.1443,0.1752,0.1485,0.1426,0.1423,0.1439,0.1356,0.136,0.1363,0.1365,0.1367,0.1441,0.1447,0.1474,0.149,0.151,0.1508,0.1486,0.1511,0.1514,0.1508,0.1557,0.1483,0.147,0.126,0.1185,0.111,0.123,0.1193,0.1212,0.1236,0.1159,0.1092,0.0945,0.0946,0.0948,0.0949,0.095,0,0.1429,0.1426,0.144,0.1442,0.1426,0.1461,0.1455,0.1406,0.1358,0.1359,0.132,0.1146,0.1036,0.1013,0.0842,0.0794,0.0837,0.0745,0.0834,0.0873,0.091,0.0822,0.0516,0.0515,0.0513,0.0512,0,0,0.1411,0.1394,0.1392,0.1349,0.1352,0.1303,0.1276,0.121,0.1176,0.1075,0.1002,0.1027,0.1015,0.0797,0.0728,0.061,0.0748,0.0561,0.0909,0.1059,0.1094,0.1158,0.1064,0,0,0,0,0]},{"header":{"parameterUnit":"m.s-1","parameterCategory":2,"la1":30.2991,"la2":30.254,"lo1":-89.0895,"lo2":-89.0444,"dy":0.0017,"dx":0.0017,"nx":28,"ny":28,"refTime":"2024-08-18T03:00:00:Z","depth":"2","parameterNumber":3,"parameterNumberName":"V-component_of_CURRENTS"},"data":[0,0,0,0,0,0,0,0,0,0,0,0,0,0,0,0,0,0,0,0,0,0,0,0,0,0,0,0,0,0,0,0,0,0,0,0,0,0,0,0,0,0,0,0,0,0,0,0,0,0,0,0,0,0,0,0,0,0,0.0125,0.0126,0,0.0161,0.0161,0.0162,0.0171,0.0171,0.017,0.017,0.0187,0.0188,0.0188,0,0,0,0,0,0,0,0,0,0,0,0,0,0.0067,0.0068,0.0125,0.0126,0.0126,0.0161,0.0161,0.0162,0.0171,0.0171,0.017,0.017,0.0187,0.0188,0.0188,0,0,0,0,0,0,0,0,0,0,0,0,0,0.0095,0.0068,0.0125,0.0136,0.0137,0.0161,0.0161,0.0162,0.0171,0.0171,0.017,0.017,0.0187,0.0188,0.0189,0.0198,0,0,0.0191,0.0192,0,0,0,0,0,0,0,0,0.0094,0.0097,0.0134,0.0135,0.0137,0.0162,0.0147,0.0173,0.0171,0.0157,0.017,0.017,0.0178,0.0179,0.0186,0.0199,0.02,0.0191,0.0192,0.0192,0.0192,0,0,0,0,0,0,0,0.0092,0.0096,0.0138,0.0134,0.0136,0.0139,0.0143,0.0152,0.0167,0.0158,0.0159,0.0165,0.0178,0.0185,0.0186,0.02,0.0191,0.0192,0.0193,0.0193,0.023,0.0231,0,0,0,0,0,0,0.009,0.0094,0.0137,0.014,0.0115,0.0141,0.0145,0.0153,0.0167,0.017,0.0165,0.0165,0.0183,0.0185,0.0187,0.0215,0.0192,0.0193,0.0194,0.023,0.023,0.0231,0,0,0,0,0,0,0.0088,0.0093,0.0136,0.0118,0.0124,0.0142,0.0151,0.0154,0.0162,0.0173,0.0175,0.017,0.0183,0.0185,0.0197,0.0215,0.0193,0.0194,0.0229,0.023,0.0231,0.0262,0,0,0,0,0,0,0.0086,0.0093,0.0099,0.0118,0.0125,0.0156,0.0152,0.0155,0.0166,0.0167,0.0178,0.018,0.0183,0.0195,0.0197,0.0216,0.0195,0.0229,0.0229,0.023,0.0261,0.0264,0.0267,0,0,0,0,0,0.0084,0.0098,0.01,0.0105,0.0133,0.0157,0.0161,0.0172,0.0167,0.0177,0.0179,0.0179,0.0202,0.0196,0.0199,0.0218,0.0228,0.0229,0.023,0.0259,0.0263,0.0267,0,0,0,0,0,0,0.0078,0.01,0.0103,0.0123,0.014,0.0159,0.0172,0.0173,0.0184,0.0183,0.0185,0.0187,0.0205,0.0204,0.0197,0.023,0.0216,0.0217,0.0237,0.0241,0.0244,0.0256,0.0196,0,0,0,0,0,0.0079,0.0094,0.0114,0.013,0.0141,0.0155,0.0165,0.0172,0.0183,0.0188,0.0194,0.0201,0.0211,0.0219,0.0227,0.0245,0.0245,0.0259,0.0262,0.0264,0.0275,0.0289,0.0294,0.0234,0.0234,0.0234,0,0,0.0081,0.0095,0.0103,0.0129,0.0144,0.0168,0.0161,0.0182,0.0198,0.0188,0.0211,0.0212,0.0217,0.0239,0.0247,0.0241,0.0279,0.0266,0.0268,0.0278,0.029,0.0296,0.0301,0.0235,0.0235,0.0235,0,0,0.0097,0.0106,0.0126,0.0143,0.0168,0.0179,0.0184,0.0205,0.0213,0.0231,0.0229,0.0242,0.0254,0.0269,0.0274,0.0299,0.0294,0.0298,0.0328,0.0341,0.0346,0.0351,0.0349,0.0354,0.0302,0.0302,0.0302,0,0.0098,0.0127,0.0136,0.0161,0.018,0.0184,0.0212,0.0223,0.0242,0.0256,0.0242,0.0274,0.0272,0.0309,0.0314,0.0309,0.0307,0.0314,0.0346,0.035,0.0354,0.0352,0.0356,0.0303,0.0303,0.0303,0.0303,0,0.0131,0.0154,0.017,0.0202,0.0221,0.0246,0.0264,0.028,0.0283,0.0295,0.0325,0.0325,0.0348,0.0345,0.0335,0.037,0.0356,0.0347,0.0338,0.0363,0.0358,0.0362,0.0306,0.0305,0.0305,0.0304,0,0,0.0133,0.0183,0.0189,0.0214,0.0246,0.0268,0.0296,0.033,0.0356,0.0365,0.0402,0.041,0.0412,0.0418,0.0413,0.0418,0.0436,0.0395,0.0394,0.0396,0.0454,0.0434,0.0436,0.0431,0.0432,0.0433,0.0436,0,0.0158,0.0213,0.023,0.028,0.0311,0.0326,0.0356,0.0383,0.0399,0.0434,0.044,0.0471,0.044,0.0454,0.0457,0.0448,0.0449,0.0435,0.0428,0.0428,0.0409,0.0441,0.0424,0.0425,0.044,0.044,0.0441,0,0.0188,0.022,0.0275,0.0328,0.0344,0.0372,0.0424,0.0452,0.0493,0.0507,0.0536,0.054,0.0564,0.0527,0.0529,0.0521,0.0491,0.0473,0.0473,0.0449,0.0415,0.0404,0.0431,0.0447,0.0447,0.0446,0.0446,0,0.0195,0.0254,0.0299,0.0318,0.0375,0.0402,0.0433,0.0476,0.0515,0.0561,0.0595,0.0613,0.0638,0.061,0.0569,0.0553,0.0559,0.0534,0.0487,0.0485,0.0467,0.0462,0.0531,0.0531,0.0531,0.0531,0.0531,0,0.0219,0.0254,0.0308,0.0334,0.0391,0.0422,0.0485,0.0515,0.0573,0.0636,0.0638,0.0686,0.066,0.0658,0.0601,0.0562,0.0586,0.0504,0.0493,0.0476,0.0471,0.0489,0.0484,0.0532,0.0532,0.0532,0.0531,0,0.0225,0.0258,0.0314,0.0377,0.0399,0.0442,0.0521,0.057,0.0615,0.0699,0.0721,0.0757,0.0752,0.0707,0.0669,0.0615,0.0569,0.0542,0.0517,0.0502,0.0475,0.0471,0.0502,0.0501,0.0501,0.05,0.05,0,0.0238,0.0268,0.0342,0.038,0.0411,0.0475,0.0526,0.0587,0.0647,0.0743,0.0792,0.0814,0.0832,0.0764,0.0674,0.0585,0.0566,0.0506,0.0475,0.0491,0.0476,0.0473,0.047,0.0459,0.0458,0.0457,0.0457,0,0.026,0.0284,0.0329,0.0404,0.0464,0.0533,0.0611,0.0667,0.0752,0.0817,0.0898,0.0916,0.086,0.0773,0.0651,0.0579,0.052,0.0493,0.0536,0.0466,0.045,0.0435,0.0434,0.0453,0.0453,0.0453,0.0454,0.0454,0.0274,0.0308,0.0366,0.0439,0.0505,0.0589,0.0652,0.0739,0.0834,0.0935,0.095,0.0964,0.0877,0.071,0.0599,0.0481,0.0498,0.044,0.0442,0.0444,0.0436,0.042,0.0415,0.0415,0.0415,0.0415,0.0416,0,0.0299,0.0337,0.04,0.0486,0.0555,0.0593,0.071,0.0776,0.0887,0.0956,0.1004,0.0892,0.0797,0.0685,0.0512,0.0417,0.0402,0.0369,0.0373,0.0378,0.0382,0.0371,0.0332,0.0332,0.0331,0.0331,0,0,0.0313,0.0366,0.0398,0.0507,0.0572,0.0671,0.0739,0.0841,0.0913,0.0963,0.0963,0.096,0.0835,0.0688,0.0551,0.0446,0.0433,0.0415,0.0492,0.0518,0.0524,0.0431,0.0421,0,0,0,0,0]}],[{"header":{"parameterUnit":"m.s-1","parameterCategory":2,"la1":30.2991,"la2":30.254,"lo1":-89.0895,"lo2":-89.0444,"dy":0.0017,"dx":0.0017,"nx":28,"ny":28,"refTime":"2024-08-18T03:00:00:Z","depth":"4","parameterNumber":2,"parameterNumberName":"U-component_of_CURRENTS"},"data":[0,0,0,0,0,0,0,0,0,0,0,0,0,0,0,0,0,0,0,0,0,0,0,0,0,0,0,0,0,0,0,0,0,0,0,0,0,0,0,0,0,0,0,0,0,0,0,0,0,0,0,0,0,0,0,0,0,0,0.0587,0.0588,0,0.0659,0.066,0.066,0.0706,0.0706,0.0706,0.0707,0.0749,0.0749,0.075,0,0,0,0,0,0,0,0,0,0,0,0,0,0.0557,0.0557,0.0587,0.0588,0.0589,0.0659,0.066,0.0661,0.0706,0.0706,0.0706,0.0707,0.0748,0.0749,0.075,0,0,0,0,0,0,0,0,0,0,0,0,0,0.0593,0.0557,0.0587,0.062,0.0624,0.0659,0.066,0.0661,0.0706,0.0706,0.0706,0.0707,0.0748,0.0749,0.0751,0.0749,0,0,0.0754,0.0755,0,0,0,0,0,0,0,0,0.0591,0.0594,0.0614,0.0618,0.0622,0.0674,0.0665,0.0689,0.0705,0.0674,0.0707,0.0707,0.0721,0.0724,0.0737,0.0751,0.0753,0.0755,0.0755,0.0756,0.0756,0,0,0,0,0,0,0,0.0588,0.0591,0.0615,0.0615,0.062,0.0655,0.066,0.067,0.0693,0.0677,0.068,0.0689,0.0723,0.0735,0.0738,0.0754,0.0754,0.0756,0.0756,0.0757,0.0842,0.0843,0,0,0,0,0,0,0.0576,0.0589,0.0613,0.0617,0.0608,0.0655,0.066,0.0657,0.0694,0.07,0.0688,0.0691,0.0733,0.0736,0.074,0.0782,0.0756,0.0757,0.0758,0.084,0.0842,0.0844,0,0,0,0,0,0,0.0575,0.0577,0.061,0.0606,0.0613,0.0654,0.065,0.0658,0.0698,0.0703,0.0709,0.0723,0.0734,0.0738,0.0768,0.0782,0.0758,0.0759,0.0839,0.0841,0.0843,0.0839,0,0,0,0,0,0,0.0573,0.0576,0.0585,0.0604,0.0612,0.0643,0.065,0.0659,0.07,0.0705,0.0734,0.0737,0.0734,0.0767,0.077,0.0783,0.076,0.0837,0.084,0.0842,0.0838,0.0841,0.0844,0,0,0,0,0,0.0572,0.0575,0.0584,0.0589,0.0617,0.0643,0.0651,0.0683,0.0702,0.072,0.0742,0.0738,0.0787,0.0769,0.0772,0.0786,0.0835,0.0839,0.0842,0.0836,0.084,0.0844,0,0,0,0,0,0,0.0569,0.0581,0.0591,0.0599,0.0626,0.0652,0.0675,0.0699,0.0733,0.0743,0.0751,0.0755,0.079,0.0795,0.0775,0.0824,0.0813,0.0818,0.0808,0.0812,0.0815,0.0826,0.0761,0,0,0,0,0,0.0571,0.0575,0.0597,0.0607,0.062,0.0655,0.0676,0.0698,0.0724,0.0742,0.0756,0.078,0.0803,0.0813,0.0832,0.0852,0.0864,0.0869,0.0872,0.0875,0.089,0.0925,0.0932,0.0855,0.0855,0.0855,0,0,0.0574,0.0581,0.0586,0.0608,0.0631,0.065,0.0669,0.0706,0.0726,0.0738,0.0772,0.0794,0.0815,0.0839,0.0855,0.0845,0.09,0.0879,0.0881,0.0895,0.0929,0.0937,0.0943,0.0857,0.0857,0.0856,0,0,0.0579,0.0589,0.0598,0.0617,0.0653,0.0668,0.0685,0.072,0.0742,0.0778,0.0793,0.0828,0.0857,0.0871,0.0883,0.0921,0.0921,0.0931,0.0948,0.0981,0.0988,0.0993,0.0994,0.1,0.0926,0.0926,0.0926,0,0.0594,0.0593,0.0609,0.0624,0.0641,0.0677,0.0696,0.0721,0.0763,0.0784,0.0791,0.0862,0.0874,0.0911,0.0924,0.0927,0.0939,0.0922,0.0984,0.099,0.0996,0.0996,0.1002,0.0926,0.0926,0.0926,0.0926,0,0.0595,0.0609,0.0617,0.0638,0.0661,0.0683,0.0712,0.0742,0.0775,0.0802,0.0859,0.0883,0.0928,0.0935,0.094,0.099,0.0981,0.0984,0.0966,0.1003,0.1001,0.1007,0.0926,0.0926,0.0926,0.0926,0,0,0.0599,0.0616,0.0623,0.0636,0.067,0.0688,0.072,0.076,0.0792,0.0838,0.0883,0.0929,0.096,0.0978,0.0992,0.1019,0.1057,0.1022,0.1023,0.101,0.1115,0.0998,0.0993,0.1072,0.1074,0.1075,0.1087,0,0.0605,0.062,0.063,0.0658,0.067,0.0705,0.0731,0.0775,0.0812,0.086,0.0909,0.096,0.0969,0.1,0.1031,0.1063,0.108,0.1053,0.1094,0.1095,0.0976,0.1,0.1081,0.1092,0.1094,0.1095,0.1095,0,0.0607,0.0614,0.0634,0.0665,0.0677,0.0704,0.0756,0.0786,0.0853,0.0889,0.095,0.0988,0.1051,0.1051,0.1121,0.1106,0.1117,0.1129,0.113,0.1031,0.0991,0.1057,0.1108,0.1107,0.1106,0.1105,0.1104,0,0.059,0.0622,0.0634,0.0644,0.0683,0.0714,0.0748,0.0806,0.0836,0.0919,0.0956,0.103,0.1077,0.1121,0.1151,0.1148,0.121,0.1204,0.1101,0.1092,0.1195,0.1189,0.1248,0.1248,0.1248,0.1248,0.1248,0,0.058,0.0596,0.0635,0.0639,0.0675,0.0715,0.0761,0.0806,0.0872,0.0907,0.098,0.1011,0.1103,0.1141,0.1164,0.1147,0.1221,0.111,0.1094,0.119,0.1184,0.1197,0.1191,0.1248,0.1248,0.1248,0.1248,0,0.0559,0.0578,0.0598,0.0645,0.0665,0.0699,0.0764,0.0792,0.0865,0.0914,0.0946,0.1019,0.1065,0.112,0.1179,0.1143,0.1151,0.1121,0.1204,0.1192,0.1005,0.0999,0.1011,0.1007,0.1004,0.1001,0.0999,0,0.054,0.0546,0.0596,0.0613,0.064,0.069,0.0718,0.0788,0.0806,0.0898,0.0908,0.098,0.1019,0.1016,0.1069,0.1087,0.1073,0.1057,0.1047,0.1,0.0985,0.0984,0.0982,0.0993,0.0993,0.0992,0.0991,0,0.0505,0.0535,0.0552,0.0582,0.0616,0.0638,0.0681,0.0691,0.0764,0.0835,0.0862,0.0887,0.0919,0.0952,0.0966,0.0978,0.1063,0.1022,0.1029,0.102,0.0979,0.0967,0.0969,0.0979,0.0981,0.0982,0.0983,0,0.0486,0.0492,0.0518,0.0546,0.0572,0.0573,0.0608,0.063,0.0661,0.0763,0.0761,0.0843,0.091,0.0891,0.0906,0.0907,0.0892,0.086,0.0876,0.0889,0.084,0.0769,0.0695,0,0,0,0,0,0.0461,0.046,0.0475,0.0486,0.0507,0.0526,0.0567,0.0599,0.0668,0.0669,0.0718,0.0748,0.077,0.0794,0.0772,0.0825,0.0884,0.0789,0.0852,0.0916,0.0929,0.0881,0,0,0,0,0,0,0.0443,0.0456,0.0457,0.0428,0.0427,0.0436,0.0466,0.0519,0.0515,0.0602,0.0623,0.0681,0.0717,0.0788,0.0756,0.0761,0.0777,0.0832,0.0828,0.0908,0.092,0.0931,0.0886,0,0,0,0,0]},{"header":{"parameterUnit":"m.s-1","parameterCategory":2,"la1":30.2991,"la2":30.254,"lo1":-89.0895,"lo2":-89.0444,"dy":0.0017,"dx":0.0017,"nx":28,"ny":28,"refTime":"2024-08-18T03:00:00:Z","depth":"4","parameterNumber":3,"parameterNumberName":"V-component_of_CURRENTS"},"data":[0,0,0,0,0,0,0,0,0,0,0,0,0,0,0,0,0,0,0,0,0,0,0,0,0,0,0,0,0,0,0,0,0,0,0,0,0,0,0,0,0,0,0,0,0,0,0,0,0,0,0,0,0,0,0,0,0,0,0.0069,0.007,0,0.0088,0.0088,0.0088,0.0092,0.0092,0.0092,0.0092,0.0102,0.0102,0.0103,0,0,0,0,0,0,0,0,0,0,0,0,0,0.0031,0.0031,0.0069,0.007,0.007,0.0088,0.0088,0.0088,0.0092,0.0092,0.0092,0.0092,0.0102,0.0102,0.0103,0,0,0,0,0,0,0,0,0,0,0,0,0,0.0047,0.0031,0.0069,0.0075,0.0076,0.0088,0.0088,0.0088,0.0092,0.0092,0.0092,0.0092,0.0102,0.0102,0.0103,0.0106,0,0,0.0104,0.0104,0,0,0,0,0,0,0,0,0.0046,0.0048,0.0074,0.0075,0.0076,0.0089,0.0078,0.0094,0.0092,0.0085,0.0092,0.0092,0.0097,0.0098,0.0101,0.0107,0.0107,0.0104,0.0104,0.0105,0.0105,0,0,0,0,0,0,0,0.0045,0.0048,0.0076,0.0074,0.0075,0.0074,0.0076,0.0081,0.009,0.0086,0.0086,0.009,0.0098,0.01,0.0101,0.0107,0.0104,0.0104,0.0105,0.0105,0.0124,0.0124,0,0,0,0,0,0,0.0045,0.0047,0.0075,0.0076,0.0062,0.0075,0.0077,0.0084,0.0091,0.0092,0.009,0.009,0.0099,0.01,0.0101,0.012,0.0105,0.0105,0.0105,0.0124,0.0124,0.0124,0,0,0,0,0,0,0.0044,0.0048,0.0074,0.0062,0.0066,0.0076,0.0083,0.0084,0.0087,0.0094,0.0095,0.0091,0.0099,0.0101,0.0109,0.012,0.0105,0.0106,0.0123,0.0124,0.0124,0.0148,0,0,0,0,0,0,0.0043,0.0047,0.0051,0.0063,0.0067,0.0085,0.0083,0.0085,0.009,0.009,0.0096,0.0097,0.0099,0.0108,0.0109,0.012,0.0106,0.0123,0.0124,0.0124,0.0147,0.0149,0.0151,0,0,0,0,0,0.0042,0.0052,0.0051,0.0054,0.0071,0.0086,0.0088,0.0094,0.009,0.0095,0.0098,0.0096,0.0112,0.0109,0.011,0.0121,0.0123,0.0124,0.0124,0.0146,0.0148,0.0151,0,0,0,0,0,0,0.004,0.0054,0.0053,0.0067,0.0075,0.0087,0.0094,0.0093,0.0099,0.0099,0.01,0.0102,0.0112,0.0111,0.0108,0.0127,0.0117,0.0117,0.0133,0.0135,0.0137,0.0146,0.0106,0,0,0,0,0,0.004,0.005,0.0061,0.0072,0.0077,0.0083,0.0088,0.0092,0.01,0.0102,0.0105,0.0109,0.0115,0.0121,0.0125,0.0136,0.013,0.0143,0.0145,0.0147,0.0155,0.0154,0.0157,0.0126,0.0126,0.0126,0,0,0.0042,0.0051,0.0057,0.0072,0.0079,0.0093,0.0086,0.0099,0.011,0.0102,0.0116,0.0115,0.0118,0.0132,0.0137,0.0134,0.015,0.0148,0.0149,0.0156,0.0155,0.0158,0.016,0.0127,0.0126,0.0126,0,0,0.0055,0.006,0.0074,0.0082,0.0095,0.01,0.0103,0.0113,0.0118,0.013,0.0127,0.0132,0.0142,0.0149,0.0154,0.0168,0.0159,0.0167,0.019,0.0189,0.0191,0.0194,0.0181,0.0182,0.0171,0.0171,0.0171,0,0.0055,0.0075,0.0079,0.0095,0.0106,0.0104,0.0121,0.0127,0.0138,0.0146,0.0139,0.0154,0.0153,0.0174,0.0179,0.0175,0.0167,0.0181,0.0192,0.0194,0.0196,0.0183,0.0184,0.0173,0.0172,0.0172,0.0172,0,0.008,0.0094,0.0104,0.0123,0.0135,0.0149,0.0159,0.0167,0.0169,0.0175,0.0191,0.0189,0.0201,0.0199,0.0195,0.0211,0.0198,0.0192,0.0187,0.0201,0.0186,0.0186,0.0174,0.0174,0.0174,0.0173,0,0,0.0085,0.0115,0.0119,0.0133,0.0151,0.0165,0.0183,0.0203,0.022,0.0222,0.0244,0.0249,0.0245,0.0249,0.0242,0.0241,0.0242,0.0225,0.0224,0.0215,0.0231,0.0221,0.022,0.0237,0.0238,0.0238,0.0212,0,0.0101,0.0136,0.0147,0.0179,0.0196,0.0204,0.0225,0.0241,0.0251,0.0269,0.0268,0.0285,0.0266,0.0273,0.0269,0.0252,0.0245,0.0249,0.0218,0.0217,0.0208,0.0221,0.0239,0.0212,0.0213,0.0213,0.0213,0,0.0121,0.0142,0.0175,0.021,0.0219,0.024,0.0273,0.0293,0.0314,0.0323,0.0335,0.0331,0.0337,0.0314,0.0295,0.0298,0.0268,0.0248,0.0246,0.0231,0.0208,0.0197,0.0213,0.0213,0.0213,0.0213,0.0213,0,0.0122,0.0162,0.019,0.0202,0.0239,0.026,0.0283,0.0311,0.0337,0.036,0.0378,0.0377,0.0384,0.0353,0.0313,0.0305,0.0281,0.0265,0.0225,0.0223,0.0229,0.0227,0.0246,0.0246,0.0247,0.0247,0.0247,0,0.0133,0.0156,0.0196,0.021,0.0253,0.0276,0.0322,0.0342,0.0379,0.0415,0.0409,0.0424,0.0395,0.0376,0.0328,0.0282,0.0294,0.0233,0.0221,0.0237,0.0237,0.0228,0.0227,0.0246,0.0246,0.0246,0.0246,0,0.013,0.0153,0.019,0.0235,0.0254,0.0287,0.0352,0.0389,0.0415,0.046,0.0471,0.047,0.0445,0.0405,0.0355,0.0309,0.026,0.0236,0.0256,0.0244,0.0194,0.0194,0.0191,0.0191,0.019,0.019,0.019,0,0.0133,0.0149,0.0206,0.0236,0.026,0.0314,0.0356,0.0403,0.0441,0.0481,0.0501,0.0495,0.0483,0.0406,0.0353,0.0273,0.0253,0.0222,0.0209,0.0204,0.0191,0.0192,0.0192,0.0189,0.0189,0.0189,0.0189,0,0.0135,0.0155,0.0187,0.0246,0.0296,0.0354,0.0414,0.0444,0.0498,0.052,0.0529,0.0496,0.0466,0.0403,0.0349,0.0283,0.0243,0.0218,0.0218,0.0205,0.0201,0.0189,0.019,0.0187,0.0188,0.0188,0.0188,0,0.014,0.0162,0.0205,0.0261,0.032,0.0381,0.0414,0.0464,0.0504,0.0545,0.0539,0.0508,0.0493,0.0407,0.035,0.0298,0.0273,0.0239,0.0237,0.0238,0.0257,0.0259,0.0259,0,0,0,0,0,0.0148,0.0175,0.022,0.0284,0.0342,0.0379,0.045,0.048,0.0524,0.0536,0.0543,0.0512,0.0437,0.0399,0.0346,0.0331,0.0259,0.0263,0.0218,0.018,0.0181,0.0195,0,0,0,0,0,0,0.0154,0.0192,0.0217,0.0292,0.0336,0.0406,0.0451,0.0484,0.0491,0.0518,0.0481,0.0475,0.0404,0.0466,0.0336,0.0321,0.0279,0.0235,0.0233,0.0179,0.018,0.0182,0.0197,0,0,0,0,0]}]]